Siemreap, Cambodia

12:14 PM +07 on June 26, 2017 (GMT +0700)
Siem Reap

Weather History for VDSR - September, 2012

Change the Weather History Date:

Wednesday, September 19, 2012

  Actual Average Record
Temperature  
Mean Temperature 81 °F -  
Max Temperature 84 °F - - ()
Min Temperature 78 °F - - ()
Cooling Degree Days 16    
Growing Degree Days 31 (Base 50)    
Moisture  
Dew Point 76 °F    
Average Humidity 86    
Maximum Humidity 94    
Minimum Humidity 74    
Precipitation  
Precipitation 0.00 in - - ()
Sea Level Pressure  
Sea Level Pressure 29.74 in    
Wind  
Wind Speed 4 mph ()    
Max Wind Speed 10 mph    
Max Gust Speed -    
Visibility 5.4 miles    
Events Rain    
T = Trace of Precipitation, MM = Missing Value Source: Averaged Metar Reports

Daily Weather History Graph

Daily Weather History Graph

Search for Another Location

Airport or City:

Trip Planner

Search our weather history database for the weather conditions in past years. The results will help you decide how hot, cold, wet, or windy it might be!

Date:

Astronomy

Sep. 19, 2012 Rise Set
Actual Time 5:53 AM +07 6:02 PM +07
Civil Twilight 5:32 AM +07 6:24 PM +07
Nautical Twilight 5:07 AM +07 6:48 PM +07
Astronomical Twilight 4:42 AM +07 7:13 PM +07
Moon 8:41 AM +07 (9/19) 8:35 PM +07 (9/19)
Length of Visible Light 12h 51m
Length of Day
12h 09m
Waxing Crescent, 13% of the Moon is Illuminated
Sep 19
Waxing Crescent
Sep 23
First Quarter
Sep 30
Full
Oct 8
Last Quarter
Oct 15
New

Hourly Weather History & Observations

Time (+07) Temp. Heat Index Dew Point Humidity Pressure Visibility Wind Dir Wind Speed Gust Speed Precip Events Conditions
7:00 AM 78.8 °F - 75.2 °F 89% 29.74 in 5.6 mi SW 6.9 mph - N/A   Mostly Cloudy
7:30 AM 78.8 °F - 75.2 °F 89% 29.77 in 5.6 mi West 4.6 mph - N/A Rain Light Rain
8:00 AM 78.8 °F - 77.0 °F 94% 29.77 in 5.6 mi WSW 4.6 mph - N/A Rain Light Rain
8:30 AM 78.8 °F - 75.2 °F 89% 29.77 in 5.6 mi SW 4.6 mph - N/A Rain Light Rain
9:00 AM 78.8 °F - 75.2 °F 89% 29.80 in 1.9 mi West 4.6 mph - N/A Rain Light Rain
9:30 AM 78.8 °F - 75.2 °F 89% 29.80 in 1.9 mi WSW 8.1 mph - N/A Rain Rain
10:00 AM 78.8 °F - 77.0 °F 94% 29.80 in 3.1 mi SW 4.6 mph - N/A Rain Rain
10:30 AM 78.8 °F - 77.0 °F 94% 29.80 in 5.0 mi WSW 4.6 mph - N/A Rain Light Rain
11:30 AM 80.6 °F 87.1 °F 77.0 °F 89% 29.77 in 6.2 mi West 5.8 mph - N/A   Mostly Cloudy
12:00 PM 80.6 °F 87.1 °F 77.0 °F 89% 29.77 in 3.7 mi ENE 4.6 mph - N/A Rain Rain
12:30 PM 78.8 °F - 77.0 °F 94% 29.74 in 3.7 mi NNW 8.1 mph - N/A Rain Rain
1:00 PM 78.8 °F - 77.0 °F 94% 29.71 in 5.0 mi North 4.6 mph - N/A Rain Light Rain
1:30 PM 80.6 °F 86.2 °F 75.2 °F 84% 29.71 in 6.2 mi North 4.6 mph - N/A   Mostly Cloudy
2:00 PM 80.6 °F 86.2 °F 75.2 °F 84% 29.68 in 6.2 mi SW 3.5 mph - N/A   Mostly Cloudy
2:30 PM 82.4 °F 90.9 °F 77.0 °F 84% 29.68 in 6.2 mi West 1.2 mph - N/A   Mostly Cloudy
3:00 PM 82.4 °F 89.5 °F 75.2 °F 79% 29.68 in 6.2 mi SSW 3.5 mph - N/A   Mostly Cloudy
3:30 PM 80.6 °F 85.4 °F 73.4 °F 79% 29.68 in 6.2 mi NNW 2.3 mph - N/A   Scattered Clouds
4:00 PM 82.4 °F 89.5 °F 75.2 °F 79% 29.68 in 6.2 mi South 2.3 mph - N/A   Scattered Clouds
4:30 PM 84.2 °F 92.3 °F 75.2 °F 74% 29.68 in 6.2 mi SW 3.5 mph - N/A   Scattered Clouds
5:00 PM 84.2 °F 94.1 °F 77.0 °F 79% 29.68 in 6.2 mi SSW 3.5 mph - N/A   Scattered Clouds
5:30 PM 82.4 °F 90.9 °F 77.0 °F 84% 29.68 in 6.2 mi WSW 4.6 mph - N/A   Scattered Clouds
6:00 PM 82.4 °F 90.9 °F 77.0 °F 84% 29.71 in 6.2 mi WSW 5.8 mph - N/A   Scattered Clouds
6:30 PM 80.6 °F 85.4 °F 73.4 °F 79% 29.71 in 6.2 mi WSW 10.4 mph - N/A   Scattered Clouds
7:00 PM 78.8 °F - 73.4 °F 83% 29.74 in 5.6 mi WSW 4.6 mph - N/A   Scattered Clouds
7:30 PM 78.8 °F - 73.4 °F 83% 29.74 in 5.6 mi West 4.6 mph - N/A   Scattered Clouds
8:00 PM 78.8 °F - 73.4 °F 83% 29.74 in 5.6 mi WSW 4.6 mph - N/A   Scattered Clouds
8:30 PM 78.8 °F - 75.2 °F 89% 29.77 in 5.6 mi SW 4.6 mph - N/A   Scattered Clouds
9:00 PM 78.8 °F - 75.2 °F 89% 29.77 in 5.6 mi West 3.5 mph - N/A   Scattered Clouds
9:30 PM 78.8 °F - 75.2 °F 89% 29.80 in 5.6 mi SW 1.2 mph - N/A   Scattered Clouds
10:30 PM 78.8 °F - 75.2 °F 89% 29.80 in 5.6 mi SE 1.2 mph - N/A   Scattered Clouds
11:00 PM 78.8 °F - 75.2 °F 89% 29.80 in 5.6 mi Calm Calm - N/A   Scattered Clouds